Home > Weather > Gdynia > Past weeks

Flag for Poland Past Weather in Gdynia, Poland — Yesterday and Last 2 Weeks

Now
61 °F

Sunny.


Feels Like: 61 °F
Forecast: 60 / 74 °F
Wind: 8 mph from East

Location: Gdansk-Rebiechowo

Current Time: May 28, 2016 at 10:09:55 PM

Latest Report: May 28, 2016 at 9:30 PM


Visibility: 10 mi

Pressure: 30.01 "Hg

Humidity: 88%

Dew Point: 57 °F

Location of GdyniaLocation

Past Weather in Gdynia — Graph

°F

Gdynia Temperature Yesterday

Maximum temperature yesterday: 68 °F (at 12:00 PM)
Minimum temperature yesterday: 48 °F (at 12:00 AM)
Average temperature yesterday: 58 °F

High & Low Weather Summary for the Past Weeks

 TemperatureHumidityPressure
High79 °F (May 23, 1:30 PM)100% (May 14, 12:00 AM)30.07 "Hg (May 14, 12:00 AM)
Low37 °F (May 19, 5:30 AM)34% (May 14, 12:00 PM)29.47 "Hg (May 13, 10:00 PM)
Average56 °F75%29.87 "Hg
* Reported May 13 9:00 PM — May 28 9:00 PM, Gdynia, Weather by CustomWeather, © 2016

Note: Actual official high and low records may vary slightly from our data, if they occured in-between our weather recording intervals... More about our weather records

Advertising

Gdynia Weather History for the Previous 24 Hours

Scroll right to see more
 ConditionsComfort  
Time TempWeatherWind HumidityBarometerVisibility
9:00 PM
Sat, May 28
63 °FPassing clouds.3 mph88%30.01 "HgN/A
8:30 PM64 °FPassing clouds.2 mph83%30.01 "HgN/A
8:00 PM64 °FPassing clouds.6 mph78%29.98 "HgN/A
7:30 PM64 °FPassing clouds.5 mph78%29.98 "HgN/A
7:00 PM64 °FPassing clouds.7 mph78%30.01 "HgN/A
6:30 PM64 °FSunny.2 mph78%29.98 "Hg10 mi
6:00 PM64 °FSunny.7 mph78%30.01 "Hg10 mi
5:30 PM66 °FPassing clouds.7 mph78%29.98 "HgN/A
5:00 PM68 °FSunny.10 mph69%29.98 "Hg10 mi
4:30 PM66 °FPassing clouds.10 mph73%30.01 "HgN/A
4:00 PM68 °FPassing clouds.10 mph69%30.01 "HgN/A
3:30 PM68 °FPassing clouds.9 mph73%30.01 "HgN/A
3:00 PM66 °FPassing clouds.10 mph73%30.01 "HgN/A
2:30 PM64 °FPassing clouds.9 mph73%30.01 "HgN/A
2:00 PM64 °FSunny.10 mph73%30.04 "Hg10 mi
1:30 PM66 °FPassing clouds.7 mph68%30.04 "HgN/A
1:00 PM66 °FPassing clouds.8 mph68%30.04 "HgN/A
12:30 PM64 °FSunny.9 mph78%30.04 "Hg10 mi
12:00 PM64 °FPassing clouds.8 mph78%30.04 "HgN/A
11:30 AM64 °FPassing clouds.8 mph83%30.04 "HgN/A
11:00 AM63 °FSunny.6 mph83%30.04 "Hg10 mi
10:30 AM61 °FPassing clouds.3 mph88%30.04 "HgN/A
10:00 AM61 °FPassing clouds.2 mph88%30.04 "HgN/A
9:30 AM59 °FLight rain. Passing clouds.6 mph94%30.04 "HgN/A
9:00 AM59 °FLight rain. Clear.7 mph94%30.04 "Hg5 mi
8:30 AM57 °FSprinkles. Fog.1 mph94%30.04 "Hg4 mi
8:00 AM57 °FSprinkles. Fog.1 mph94%30.04 "Hg3 mi
7:30 AM57 °FSprinkles. Fog.1 mph94%30.04 "Hg3 mi
7:00 AM57 °FClear.2 mph94%30.04 "Hg5 mi
6:30 AM55 °FFog.3 mph100%30.04 "Hg3 mi
6:00 AM55 °FFog.2 mph100%30.04 "Hg2 mi
5:30 AM54 °FFog.2 mph94%30.04 "Hg2 mi
5:00 AM54 °FPassing clouds.1 mph100%30.04 "Hg4 mi
4:30 AM54 °FFog.1 mph100%30.04 "Hg3 mi
4:00 AM54 °FCool.1 mph100%30.04 "Hg1 mi
3:30 AM54 °FFog.1 mph94%30.04 "Hg3 mi
3:00 AM54 °FFog.2 mph94%30.04 "Hg2 mi
2:30 AM54 °FClear.2 mph94%30.04 "Hg4 mi
2:00 AM54 °FClear.2 mph100%30.04 "Hg5 mi
1:30 AM55 °FClear.1 mph94%30.04 "Hg4 mi
1:00 AM57 °FClear.2 mph94%30.04 "Hg5 mi
12:30 AM55 °FFog.2 mph100%30.04 "Hg3 mi
12:00 AM55 °FClear.2 mph94%30.04 "Hg4 mi
11:30 PM
Fri, May 27
55 °FClear.2 mph94%30.04 "Hg6 mi
11:00 PM55 °FClear.2 mph94%30.04 "Hg10 mi
10:30 PM59 °FPassing clouds.5 mph88%30.04 "HgN/A
10:00 PM57 °FSunny.3 mph94%30.07 "Hg10 mi
Weather by CustomWeather, © 2016

See weather overviewHow to use our weather pages